Regional Weather Roundup
Issued by NWS

Home | Current Version | Previous Version | Graphics & Text | Print | Product List | Glossary On
Versions: 1 2 3 4 5 6 7 8 9 10 11 12 13 14 15 16 17 18 19 20 21 22 23 24 25 26 27 28 29 30 31 32 33 34 35 36 37 38 39 40 41 42 43 44 45 46 47 48 49 50
000
ASUS43 KDMX 202206
RWRIA

WEATHER ROUNDUP FOR IOWA
NATIONAL WEATHER SERVICE DES MOINES IA
500 PM CDT SUN MAY 20 2018

NOTE: "FAIR" INDICATES FEW OR NO CLOUDS BELOW 12,000 FEET WITH NO
SIGNIFICANT WEATHER AND/OR OBSTRUCTIONS TO VISIBILITY.

* - THESE STATIONS ARE NOT NWS STATIONS...THUS NOT UNDER NWS
QUALITY CONTROL.  THEY ALSO DO NOT REPORT WEATHER SUCH
AS PRECIPITATION OR FOG.

IAZ001>003-012>014-020>022-031>034-043>046-202300-
   NORTHWEST IOWA

CITY           SKY/WX    TMP DP  RH WIND       PRES   REMARKS
CARROLL *      CLOUDY   N/A N/A N/A NE14      30.08F
CHEROKEE *     CLOUDY    60  54  80 E8        30.10F
DENISON *      CLOUDY    59  57  94 NE9       30.09F
LE MARS *      CLOUDY    59  50  72 N6        30.10F
ORANGE CITY *  CLOUDY    61  52  72 NE3       30.11F
SHELDON *      CLOUDY    61  52  72 NE8       30.10F
SIOUX CITY     CLOUDY    54  50  86 N5        30.11F
SPENCER        CLOUDY    61  51  70 E14       30.12F
STORM LAKE *   CLOUDY    57  54  88 NE12G17   30.10F
$$

IAZ055>058-069>071-079>083-090>094-202300-
   SOUTHWEST IOWA

CITY           SKY/WX    TMP DP  RH WIND       PRES   REMARKS
ATLANTIC *     CLOUDY    66  59  77 SE7       30.05S
AUDUBON *      CLOUDY    64  57  77 NE12      30.08S
CLARINDA *     CLOUDY    72  63  73 E6        30.06S
COUNCIL BLFS * CLOUDY    59  59 100 N10       30.07F
CRESTON *      CLOUDY    64  59  82 E7        30.08F
HARLAN  *      PTSUNNY   63  59  88 NE5       30.11R
LAMONI         CLOUDY    69  63  81 VRB3      30.05F
RED OAK *      CLOUDY    68  61  77 NE8       30.04F
SHENANDOAH *   CLOUDY    70  61  73 NE5       30.04F
$$

IAZ047>049-059>061-072>074-084-202300-
   CENTRAL IOWA

CITY           SKY/WX    TMP DP  RH WIND       PRES   REMARKS
AMES           CLOUDY    61  57  87 NE10      30.09F
ANKENY *       CLOUDY    64  61  88 NE10      30.08F
BOONE *        CLOUDY    61  57  88 E14       30.09S FOG
CHARITON *     CLOUDY    70  63  78 NE6       30.06S
DES MOINES     CLOUDY    66  59  78 VRB7      30.07R
GRINNELL*      CLOUDY    63  56  78 NE13      30.09F
KNOXVILLE *    CLOUDY    70  61  73 VRB5      30.05S
MARSHALLTOWN   CLOUDY    61  58  90 NE15      30.08F
NEWTON *       CLOUDY    64  59  82 NE14      30.07F
PELLA *        PTSUNNY   67  59  73 NE5       30.08R HAZE
PERRY *        CLOUDY    62  58  85 E9        30.08F
$$

IAZ004>006-015-016-023>025-035-036-202300-
   NORTH CENTRAL IOWA

CITY           SKY/WX    TMP DP  RH WIND       PRES   REMARKS
ALGONA *       CLOUDY    59  52  77 E9        30.13S
CLARION *      CLOUDY    59  54  82 E17       30.11F
ESTHERVILLE    CLOUDY    60  51  72 E13       30.12F
FORT DODGE *   CLOUDY    59  54  83 NE9       30.11F
MASON CITY     CLOUDY    58  51  78 NE14      30.15F
FOREST CITY *  PTSUNNY   59  52  77 E7        30.14S
WEBSTER CITY * CLOUDY    61  55  82 NE13      30.08F
IOWA FALLS *   CLOUDY    61  56  83 E12       30.12S
$$

IAZ007>011-017>019-026>030-037>042-050>054-066-202300-
   NORTHEAST IOWA

CITY           SKY/WX    TMP DP  RH WIND       PRES   REMARKS
CEDAR RAPIDS   CLOUDY    58  55  90 E13       30.10S
CHARLES CITY * CLOUDY    61  52  72 NE13      30.14S
CLINTON *        N/A     60  55  83 E12       30.12R
DECORAH *      CLOUDY    57  50  77 E9        30.15F
DUBUQUE        CLOUDY    56  52  86 NE14      30.13F
MONTICELLO *   CLOUDY    57  55  94 NE9G17    30.11F
OELWEIN *      CLOUDY    57  54  88 E10       30.14S
WATERLOO       CLOUDY    57  54  89 E13       30.12S
$$

IAZ064-065-067-068-078-202300-
   EAST CENTRAL IOWA

CITY           SKY/WX    TMP DP  RH WIND       PRES   REMARKS
DAVENPORT      PTSUNNY   62  54  74 E8        30.12R
IOWA CITY      PTSUNNY   64  55  72 E10       30.11R
MT. PLEASANT * CLOUDY    68  63  83 E7        30.07R FOG
MUSCATINE *    FAIR      70  55  60 E9        30.08F
QUAD CITIES    CLOUDY    64  55  72 NE13      30.09R
$$

IAZ062-063-075>077-085>089-095>099-202300-
   SOUTHEAST IOWA

CITY           SKY/WX    TMP DP  RH WIND       PRES   REMARKS
BURLINGTON     CLOUDY    71  65  81 NE7       30.05F
FAIRFIELD *    CLOUDY    72  63  73 NE14      30.05S
FORT MADISON * LGT RAIN  73  66  78 CALM      30.07R
KEOKUK *       CLOUDY    75  66  73 CALM      30.05R
OSKALOOSA *    FAIR      67  60  76 NE13      30.06F
CENTERVILLE *    N/A     72  68  88 CALM      30.07S
OTTUMWA        CLOUDY    71  61  70 NE14      30.05F
WASHINGTON *   CLOUDY    70  59  68 NE13G18   30.08S
$$

ABBREVIATIONS USED IN REMARKS
   TC - TEMPERATURES IN CELSIUS
  WCI - WIND CHILL INDEX
   HX - HEAT INDEX
  VSB - VISIBILITY
$$





USA.gov is the U.S. government's official web portal to all federal, state and local government web resources and services.